Location: Pasarilla del Rebollar
(40.6790°N, 5.0062°W)
Time: 11:01:22
(UTC+00:00)

ARGOS - Pass Details

Date: 22 April 2026
Orbit: 818 x 833 km, 98.5° (Epoch: 14 May)

Event Time Altitude Azimuth Distance (km) Brightness Sun altitude
Rises 04:50:09 0° 4° (N) 3,372 6.7 -8.1°
Reaches altitude 10° 04:52:41 10° 355° (N) 2,432 5.9 -7.7°
Maximum altitude 04:57:29 34° 292° (WNW) 1,321 3.9 -6.8°
Drops below altitude 10° 05:02:15 10° 229° (SW) 2,410 5.0 -6.0°
Enters shadow 05:03:51 - 223° (SW) 2,994 5.5 -5.7°
